Showing default

FOSSASAT2E25, 68478

Orbit data source: Space-Track

FOSSASAT2E25, 68478 is a payload satellite owned by Fossa Systems (ES) in SSO that was launched on Mon, 30 Mar 2026 UTC via an FALCON 9 launch vehicle from the Air Force Western Test Range (AFWTR). Payload-class satellites include a variety of spacecraft equipped with specific instruments for various scientific and technological missions. These include communications satellites like Starlink; space stations such as the ISS; scientific satellites like the Hubble; Earth observation satellites from companies like Planet Labs, Umbra, and HawkEye 360; GPS; miniature CubeSats for education and research; and military/defense satellites.

Loading next visibility...
Identifier
68478, 2026-067BQ
Orbit
SSO
Country
Flag of ESES / SPN
Related business
Manufacturer
Fossa Systems
Mission
Operational spacecraft
Bus & Motor
CUBESAT 3U, Unknown motor
Mass
5 kg wet, 5 kg dry
Launch date (UTC)
2026-03-30 (3 months ago)
Launch vehicle
FALCON 9
Launch site
Air Force Western Test Range (AFWTR)
Object type
Payload
Rocket body
Debris
Shape & HBR
Unknown shape, 0.2 m
Radar Cross Section
Medium (>0.1 m² and <1 m²)

Expand to show TLE details & history
Last TLE update: 2 days ago

TLE from 2 days ago
0 FOSSASAT2E25
1 68478U 26067BQ  26171.31651883  .00000514  00000-0  56024-4 0  9997
2 68478  97.7599 129.5630 0000344 312.9158  47.2032 14.92139606 12199
Epoch: 2026-06-20T07:35Z
TLE epoch observation values (Epoch: 2026-06-20T07:35:47.226Z)
Latitude
-0.00006°
Longitude
107.08334°
Altitude
594.145 km
Speed
7.563 km/s
True Right ascension
08h 38m 15s
True Declination
0° 00' 00"
Sunlit
Object was in daylight at epoch
Visualization orbit readout
Latitude
Unknown
Longitude
Unknown
Altitude
Unknown
Speed
Unknown
Apparent Right ascension
Unknown
Apparent Declination
Unknown
Sunlit
N/A
Visualization observer readout
Local Sidereal Time
15:45:01
Azimuth
Unknown
Elevation
Unknown
Doppler factor
Unknown
Orbital elements
Apogee altitude
588.523 km
Perigee altitude
588.044 km
Semi-major axis
6,966.421 km
Eccentricity
0.00003
Inclination
97.7599°
RAAN
129.563°
Arg. of periapsis
312.9158°
True anomaly
47.20609°
Mean anomaly
47.2032°
Eccentric anomaly
47.20465°
Mean motion
3.73275 °/min
Orbital period
96.44 mins
BSTAR
0.000056024
Loading maneuver chart data...
Computing Atmospheric mass density...
Loading historical data...
Loading historical data...
Loading historical data...
Loading historical data...
Loading historical data...
Loading historical data...
Loading historical data...

Documentation

Showing up to 5 results
|